| time (UTC) | temp C | wind direction | speed KPH | gust KPH | rain 1hr cm | rain 24hr cm | rain mn cm | humidity % | barometer mb |
| 20260502151606 | 6 | 327 | 6.4 | 22.5 | 0.00 | 0.00 | 0.00 | 59 | 1014.9 |
| 20260502123040 | 2 | 262 | 3.2 | 6.4 | 0.00 | 0.00 | 0.00 | 90 | 1014.4 |
| 20260502121541 | 2 | 285 | 1.6 | 3.2 | 0.00 | 0.00 | 0.00 | 92 | 1014.6 |
| 20260502114547 | 1 | 0 | 0.0 | 0.0 | 0.00 | 0.00 | 0.00 | 93 | 1014.4 |
| 20260502113046 | 1 | 0 | 0.0 | 0.0 | 0.00 | 0.00 | 0.00 | 93 | 1014.4 |
| 20260502111539 | 0 | 0 | 0.0 | 0.0 | 0.00 | 0.00 | 0.00 | 93 | 1014.4 |
| 20260502110047 | 0 | 0 | 0.0 | 3.2 | 0.00 | 0.00 | 0.00 | 93 | 1014.3 |
| 20260502104543 | 0 | 0 | 0.0 | 3.2 | 0.00 | 0.00 | 0.00 | 92 | 1014.4 |
| 20260502103045 | 0 | 0 | 0.0 | 0.0 | 0.00 | 0.00 | 0.00 | 92 | 1014.5 |
| 20260502101601 | 0 | 0 | 0.0 | 0.0 | 0.00 | 0.00 | 0.00 | 92 | 1014.5 |
| 20260502070101 | 3 | 280 | 1.6 | 3.2 | 0.00 | 0.00 | 0.00 | 84 | 1014.4 |
| 20260502064546 | 3 | 275 | 1.6 | 4.8 | 0.00 | 0.00 | 0.00 | 82 | 1014.3 |
| 20260502063045 | 3 | 295 | 3.2 | 6.4 | 0.00 | 0.00 | 0.00 | 81 | 1014.5 |
| 20260502061544 | 3 | 318 | 0.0 | 3.2 | 0.00 | 0.00 | 0.00 | 81 | 1014.6 |
| 20260502060046 | 4 | 306 | 1.6 | 4.8 | 0.00 | 0.00 | 0.00 | 80 | 1015.0 |
| 20260502054557 | 4 | 309 | 0.0 | 3.2 | 0.00 | 0.00 | 0.00 | 79 | 1014.7 |
| 20260502053044 | 4 | 264 | 1.6 | 6.4 | 0.00 | 0.00 | 0.00 | 78 | 1014.9 |
| 20260502051540 | 5 | 351 | 3.2 | 6.4 | 0.00 | 0.00 | 0.00 | 77 | 1014.8 |
| 20260502050038 | 5 | 16 | 0.0 | 3.2 | 0.00 | 0.00 | 0.00 | 78 | 1014.9 |
| 20260502044543 | 5 | 0 | 0.0 | 4.8 | 0.00 | 0.00 | 0.00 | 78 | 1015.0 |
| 20260502043056 | 5 | 32 | 3.2 | 8.0 | 0.00 | 0.00 | 0.00 | 79 | 1014.9 |
| 20260502041608 | 5 | 347 | 4.8 | 12.9 | 0.00 | 0.00 | 0.00 | 78 | 1015.1 |
| 20260502040052 | 6 | 309 | 6.4 | 20.9 | 0.00 | 0.00 | 0.00 | 79 | 1015.0 |
| 20260502034539 | 6 | 290 | 9.7 | 19.3 | 0.00 | 0.00 | 0.00 | 79 | 1015.0 |
| 20260502033043 | 6 | 298 | 4.8 | 12.9 | 0.00 | 0.00 | 0.00 | 77 | 1015.0 |
| 20260502031543 | 7 | 296 | 4.8 | 16.1 | 0.00 | 0.00 | 0.00 | 77 | 1015.0 |
| 20260502030059 | 7 | 269 | 1.6 | 8.0 | 0.00 | 0.00 | 0.00 | 78 | 1014.7 |
| 20260502024546 | 7 | 313 | 4.8 | 12.9 | 0.00 | 0.00 | 0.00 | 78 | 1014.8 |
| 20260502023049 | 7 | 294 | 1.6 | 16.1 | 0.00 | 0.00 | 0.00 | 77 | 1014.9 |
| 20260502021543 | 7 | 321 | 6.4 | 12.9 | 0.00 | 0.00 | 0.00 | 76 | 1014.6 |
| 20260502020041 | 7 | 346 | 1.6 | 6.4 | 0.00 | 0.00 | 0.00 | 74 | 1014.4 |
| 20260502014543 | 7 | 328 | 3.2 | 6.4 | 0.00 | 0.00 | 0.00 | 73 | 1014.4 |
| 20260502013052 | 7 | 250 | 1.6 | 9.7 | 0.00 | 0.00 | 0.00 | 72 | 1014.4 |
| 20260502011554 | 7 | 322 | 6.4 | 14.5 | 0.00 | 0.00 | 0.00 | 71 | 1014.3 |
| 20260502010036 | 7 | 256 | 4.8 | 14.5 | 0.00 | 0.00 | 0.00 | 71 | 1014.2 |
| 20260502004540 | 8 | 307 | 3.2 | 16.1 | 0.00 | 0.00 | 0.00 | 72 | 1014.0 |
| 20260502003039 | 8 | 340 | 9.7 | 16.1 | 0.00 | 0.00 | 0.00 | 73 | 1013.7 |
| 20260502001543 | 8 | 309 | 6.4 | 14.5 | 0.00 | 0.00 | 0.00 | 74 | 1013.1 |
| 20260502000056 | 8 | 344 | 9.7 | 16.1 | 0.00 | 0.00 | 0.00 | 75 | 1012.5 |
| 20260501234538 | 9 | 308 | 6.4 | 16.1 | 0.00 | 0.00 | 0.00 | 74 | 1012.3 |
| 20260501233043 | 9 | 317 | 8.0 | 19.3 | 0.00 | 0.00 | 0.00 | 75 | 1012.0 |
| 20260501231545 | 10 | 283 | 6.4 | 20.9 | 0.00 | 0.00 | 0.00 | 72 | 1012.3 |
| 20260501230109 | 10 | 348 | 8.0 | 19.3 | 0.00 | 0.00 | 0.00 | 70 | 1011.9 |
| 20260501224554 | 11 | 355 | 8.0 | 20.9 | 0.00 | 0.00 | 0.00 | 68 | 1011.6 |
| 20260501223040 | 11 | 300 | 9.7 | 25.7 | 0.00 | 0.00 | 0.00 | 62 | 1011.4 |
| 20260501221541 | 12 | 321 | 9.7 | 20.9 | 0.00 | 0.00 | 0.00 | 57 | 1011.2 |
| 20260501220044 | 12 | 286 | 8.0 | 20.9 | 0.00 | 0.00 | 0.00 | 51 | 1010.9 |
| 20260501214542 | 13 | 325 | 11.3 | 24.1 | 0.00 | 0.00 | 0.00 | 49 | 1010.8 |
| 20260501213038 | 13 | 326 | 11.3 | 27.4 | 0.00 | 0.00 | 0.00 | 48 | 1010.9 |
| 20260501211538 | 14 | 331 | 11.3 | 27.4 | 0.00 | 0.00 | 0.00 | 44 | 1010.5 |
| 20260501210044 | 15 | 211 | 12.9 | 33.8 | 0.00 | 0.00 | 0.00 | 40 | 1010.5 |
| 20260501204544 | 15 | 282 | 16.1 | 24.1 | 0.00 | 0.00 | 0.00 | 34 | 1010.2 |
| 20260501203043 | 16 | 271 | 12.9 | 33.8 | 0.00 | 0.00 | 0.00 | 34 | 1009.9 |
| 20260501201543 | 16 | 227 | 9.7 | 30.6 | 0.00 | 0.00 | 0.00 | 36 | 1009.8 |
| 20260501200038 | 16 | 265 | 12.9 | 27.4 | 0.00 | 0.00 | 0.00 | 34 | 1010.1 |
| 20260501194538 | 16 | 254 | 19.3 | 29.0 | 0.00 | 0.00 | 0.00 | 31 | 1010.1 |
| 20260501193043 | 15 | 271 | 11.3 | 24.1 | 0.00 | 0.00 | 0.00 | 34 | 1010.3 |
| 20260501191542 | 16 | 272 | 12.9 | 25.7 | 0.00 | 0.00 | 0.00 | 33 | 1010.3 |
| 20260501190043 | 16 | 259 | 17.7 | 27.4 | 0.00 | 0.00 | 0.00 | 36 | 1010.4 |
| 20260501184543 | 16 | 253 | 9.7 | 32.2 | 0.00 | 0.00 | 0.00 | 37 | 1010.4 |
| 20260501183038 | 16 | 232 | 14.5 | 32.2 | 0.00 | 0.00 | 0.00 | 36 | 1010.6 |
| 20260501181537 | 15 | 271 | 8.0 | 20.9 | 0.00 | 0.00 | 0.00 | 35 | 1010.8 |
| 20260501180040 | 15 | 238 | 11.3 | 30.6 | 0.00 | 0.00 | 0.00 | 33 | 1011.0 |
| 20260501174540 | 15 | 253 | 12.9 | 22.5 | 0.00 | 0.00 | 0.00 | 32 | 1011.1 |
| 20260501173058 | 15 | 235 | 8.0 | 32.2 | 0.00 | 0.00 | 0.00 | 34 | 1011.0 |
| 20260501171538 | 15 | 231 | 14.5 | 29.0 | 0.00 | 0.00 | 0.00 | 35 | 1011.2 |
| 20260501170040 | 15 | 208 | 9.7 | 33.8 | 0.00 | 0.00 | 0.00 | 35 | 1011.4 |
| 20260501164602 | 13 | 225 | 12.9 | 29.0 | 0.00 | 0.00 | 0.00 | 36 | 1011.7 |
| 20260501163041 | 14 | 229 | 6.4 | 17.7 | 0.00 | 0.00 | 0.00 | 33 | 1011.7 |
| 20260501161543 | 13 | 207 | 6.4 | 25.7 | 0.00 | 0.00 | 0.00 | 34 | 1011.9 |
| 20260501160041 | 13 | 247 | 4.8 | 17.7 | 0.00 | 0.00 | 0.00 | 35 | 1012.0 |